Find Starlink 31723

NORAD ID: 59553 Int'l Des: 2024-074 Owner: SPXS Country: US Constellation: starlink operational
LEOCIRCULAR

当前视图

正在加载3D地球...

About Starlink 31723

Starlink 31723 (NORAD 59553) is a starlink constellation satellite (v2 mini) launched Apr 18, 2024 by SPXS of US. It operates in LEO, CIRCULAR orbit with a mass of 730.00 kg.

即将过境

Passes for default location (London). Set your location on the main map for personalized predictions.

高度历史

Loading altitude history...

两行轨道根数

1 59553U 24074V 26262.29271222 -.00000646 00000-0 -13945-4 0 9993
2 59553 43.0019 330.1334 0001315 284.4329 75.6377 15.27579098135620
Epoch: Sep 19, 2026 • Age: 56 hours

当前状态

高度 484.1 km
远地点 / 近地点 N/A
速度 7.63 km/s
星下点 27.36°N, 115.16°W
发射日期 Apr 18, 2024
运行时间 2.4 years
类型 internet

技术详情

分类 Payload
质量 730.00 kg
干质量 700.00 kg
长度 0.30 m
跨度 29.00 m
形状 ? Box + pan
制造商 SPXS
平台类型 Starlink V2M
阶段状态 In Orbit
所有者/国家 SPXS/US

Most Searched